EW0435 Weather Reports


Display with metric or nautical units.
time (UTC)temp
F
wind
direction
speed
MPH
gust
MPH
rain 1hr
in
rain 24hr
in
rain mn
in
humidity
%
barometer
mb
20260904044004 45 297 1.0 2.0 0.05 0.45 0.44 92 1014.9
20260904043503 45 292 0.0 2.0 0.04 0.44 0.43 92 1014.9
20260904042504 46 317 0.0 0.0 0.05 0.44 0.43 91 1014.9
20260904042004 46 311 0.0 0.0 0.04 0.43 0.42 91 1014.9
20260904041503 46 324 0.0 1.0 0.04 0.43 0.42 91 1014.9
20260904041003 46 313 0.0 0.0 0.04 0.42 0.41 90 1015.0
20260904040504 46 314 0.0 1.0 0.04 0.42 0.41 90 1015.0
20260904040004 46 316 0.0 1.0 0.04 0.42 0.41 90 1015.1
20260904035004 46 311 0.0 0.0 0.04 0.40 0.39 90 1015.4
20260904034504 46 309 0.0 0.0 0.04 0.40 0.39 90 1015.2
20260904034004 47 296 0.0 1.0 0.04 0.40 0.39 89 1015.0
20260904033504 47 296 0.0 1.0 0.05 0.40 0.39 89 1015.0
20260904033005 47 297 0.0 2.0 0.04 0.39 0.38 89 1014.9
20260904032504 47 286 0.0 2.0 0.04 0.39 0.38 89 1014.9
20260904031504 47 283 0.0 3.0 0.05 0.39 0.38 89 1015.0
20260904031004 48 276 0.0 2.0 0.04 0.38 0.37 89 1015.1
20260904030504 48 288 0.0 2.0 0.05 0.38 0.37 88 1015.0
20260904030004 48 274 1.0 2.0 0.05 0.38 0.37 88 1015.0
20260904025504 48 279 0.0 3.0 0.04 0.37 0.36 88 1015.0
20260904025004 49 288 0.0 3.0 0.03 0.36 0.35 89 1015.0
20260904024004 49 262 0.0 0.0 0.04 0.36 0.35 90 1015.1
20260904023504 49 271 0.0 0.0 0.04 0.35 0.34 90 1015.0
20260904023004 49 253 0.0 0.0 0.04 0.35 0.34 90 1014.9
20260904022504 49 248 0.0 0.0 0.04 0.35 0.34 89 1014.8
20260904021004 50 246 0.0 0.0 0.04 0.34 0.33 88 1015.1
20260904020504 50 234 0.0 0.0 0.03 0.33 0.32 88 1015.1
20260904020004 50 224 0.0 0.0 0.03 0.33 0.32 87 1015.0
20260904015004 50 252 0.0 0.0 0.03 0.33 0.32 86 1014.8
20260904014004 51 236 0.0 0.0 0.03 0.32 0.31 85 1014.9
20260904013504 51 226 0.0 0.0 0.02 0.31 0.30 84 1015.0
20260904012503 52 226 0.0 0.0 0.03 0.31 0.30 82 1014.8
20260904012004 52 226 0.0 0.0 0.03 0.31 0.30 82 1014.9
20260904011504 52 226 0.0 0.0 0.02 0.30 0.29 81 1015.0
20260904011004 52 226 0.0 0.0 0.02 0.30 0.29 80 1015.0
20260904010504 52 226 0.0 0.0 0.02 0.30 0.29 79 1015.1
20260904010004 53 226 0.0 0.0 0.02 0.30 0.29 80 1015.1
20260904005504 53 226 0.0 0.0 0.02 0.30 0.29 81 1015.2
20260904004503 53 226 0.0 0.0 0.01 0.29 0.28 79 1015.2
20260904004004 53 293 0.0 0.0 0.01 0.29 0.28 78 1015.1
20260904003004 53 90 0.0 1.0 0.01 0.29 0.28 83 1015.2
20260904002004 53 91 0.0 2.0 0.00 0.28 0.27 82 1015.4
20260904000504 54 104 0.0 0.0 0.00 0.28 0.27 80 1015.4
20260904000004 54 110 0.0 1.0 0.00 0.28 0.27 80 1015.3
20260903235504 54 120 0.0 0.0 0.00 0.28 0.27 80 1015.2
20260903235004 54 119 0.0 1.0 0.00 0.28 0.27 82 1015.3
20260903234504 54 110 0.0 0.0 0.00 0.28 0.27 80 1015.3
20260903234004 54 96 0.0 1.0 0.00 0.28 0.27 80 1015.4
20260903233504 54 123 0.0 1.0 0.00 0.28 0.27 80 1015.4
20260903233004 54 123 0.0 2.0 0.00 0.28 0.27 79 1015.6
20260903232504 55 116 0.0 1.0 0.00 0.28 0.27 79 1015.7
20260903232004 55 113 0.0 1.0 0.00 0.28 0.27 79 1015.7
20260903231004 55 149 0.0 0.0 0.00 0.28 0.27 78 1015.9
20260903230004 55 86 0.0 0.0 0.00 0.28 0.27 78 1015.9
20260903225504 55 138 0.0 1.0 0.00 0.28 0.27 79 1016.0
20260903225004 55 106 1.0 3.0 0.00 0.28 0.27 79 1016.0
20260903223503 55 139 0.0 1.0 0.00 0.28 0.27 80 1016.1
20260903222504 54 129 1.0 3.0 0.00 0.28 0.27 81 1015.9
20260903222005 54 125 1.0 3.0 0.00 0.28 0.27 81 1016.0
20260903221004 54 115 0.0 2.0 0.00 0.28 0.27 82 1016.2
20260903220504 54 95 0.0 3.0 0.00 0.28 0.27 83 1016.2
20260903215504 54 111 0.0 3.0 0.00 0.28 0.27 83 1016.4
20260903215005 54 133 0.0 2.0 0.00 0.28 0.27 82 1016.4
20260903214504 54 143 0.0 3.0 0.00 0.28 0.27 83 1016.5
20260903214004 54 129 0.0 1.0 0.00 0.28 0.27 82 1016.6
20260903213504 54 132 0.0 2.0 0.00 0.28 0.27 84 1016.6
20260903213004 54 144 0.0 2.0 0.00 0.28 0.27 84 1016.6
20260903212504 54 145 0.0 2.0 0.00 0.28 0.27 84 1016.5
20260903212004 54 136 1.0 3.0 0.00 0.28 0.27 83 1016.5
20260903211504 54 133 0.0 1.0 0.00 0.28 0.27 83 1016.6
20260903211004 53 115 0.0 1.0 0.00 0.28 0.27 84 1016.6
20260903210003 54 132 0.0 2.0 0.00 0.28 0.27 83 1016.6
20260903205504 54 121 0.0 1.0 0.00 0.28 0.27 85 1016.6
20260903204504 53 140 0.0 0.0 0.00 0.28 0.27 84 1016.6
20260903204004 53 111 0.0 1.0 0.00 0.28 0.27 86 1016.5
20260903203004 53 115 0.0 2.0 0.00 0.28 0.27 87 1016.7
20260903202005 52 130 0.0 2.0 0.00 0.28 0.27 86 1016.7
20260903201504 52 127 1.0 3.0 0.00 0.28 0.27 84 1016.8
20260903201004 52 134 0.0 2.0 0.00 0.28 0.27 86 1016.8
20260903200505 52 122 1.0 3.0 0.00 0.28 0.27 87 1016.8
20260903200004 52 102 0.0 3.0 0.00 0.28 0.27 89 1016.8
20260903195504 51 114 0.0 3.0 0.00 0.28 0.27 89 1016.8
20260903195004 51 133 0.0 2.0 0.00 0.28 0.27 88 1016.9
20260903194504 51 129 0.0 1.0 0.00 0.28 0.27 89 1017.0
20260903194004 51 99 0.0 1.0 0.00 0.28 0.27 89 1017.1
20260903193504 51 117 0.0 2.0 0.00 0.28 0.27 88 1017.1
20260903193004 51 133 0.0 2.0 0.00 0.28 0.27 89 1017.1
20260903192504 51 141 0.0 2.0 0.00 0.28 0.27 89 1017.1
20260903191504 51 129 1.0 3.0 0.00 0.28 0.27 88 1017.2
20260903191004 51 123 1.0 3.0 0.00 0.28 0.27 88 1017.2
20260903190004 52 123 0.0 2.0 0.00 0.28 0.27 86 1017.2
20260903185504 52 107 0.0 1.0 0.00 0.28 0.27 85 1017.3
20260903185004 52 100 0.0 2.0 0.00 0.28 0.27 87 1017.3
20260903184004 51 117 0.0 1.0 0.00 0.28 0.27 87 1017.4
20260903183503 51 118 0.0 2.0 0.00 0.28 0.27 87 1017.4
20260903182504 51 104 1.0 2.0 0.00 0.28 0.27 87 1017.3
20260903182004 51 102 0.0 2.0 0.00 0.28 0.27 87 1017.4
20260903181504 51 93 0.0 2.0 0.00 0.28 0.27 87 1017.4
20260903181004 51 109 0.0 0.0 0.00 0.28 0.27 87 1017.4
20260903180503 51 101 0.0 3.0 0.00 0.28 0.27 86 1017.3
20260903180004 51 100 0.0 0.0 0.00 0.28 0.27 87 1017.4
20260903175504 51 88 0.0 0.0 0.00 0.28 0.27 85 1017.4
20260903175003 52 78 0.0 1.0 0.00 0.28 0.27 86 1017.4
20260903174503 51 75 0.0 0.0 0.00 0.28 0.27 84 1017.4
20260903174004 51 90 0.0 0.0 0.00 0.28 0.27 83 1017.3
20260903173504 51 88 0.0 0.0 0.00 0.28 0.27 84 1017.2
20260903173004 51 90 0.0 0.0 0.00 0.28 0.27 83 1017.3
20260903172504 51 66 0.0 0.0 0.00 0.28 0.27 83 1017.3
20260903172004 51 62 0.0 0.0 0.00 0.28 0.27 84 1017.3
20260903171504 51 59 0.0 0.0 0.00 0.28 0.27 83 1017.3
20260903171004 51 56 0.0 0.0 0.00 0.28 0.27 85 1017.3
20260903170504 51 56 0.0 0.0 0.00 0.28 0.27 84 1017.3
20260903170004 51 52 0.0 0.0 0.00 0.28 0.27 84 1017.2
20260903165504 51 46 0.0 0.0 0.00 0.28 0.27 86 1017.3
20260903165004 51 44 0.0 0.0 0.00 0.28 0.27 87 1017.2
20260903164504 51 42 0.0 0.0 0.00 0.28 0.27 88 1017.1
20260903163504 51 42 0.0 0.0 0.00 0.29 0.27 89 1017.1
20260903163004 50 350 0.0 0.0 0.00 0.29 0.27 88 1017.1
20260903162004 50 350 0.0 0.0 0.01 0.30 0.27 89 1017.0
20260903161504 50 350 0.0 0.0 0.01 0.30 0.27 89 1017.1
20260903161004 49 349 0.0 0.0 0.01 0.31 0.27 90 1017.0
20260903160504 49 330 0.0 0.0 0.01 0.31 0.27 90 1017.0
20260903160004 49 330 0.0 0.0 0.01 0.32 0.27 91 1016.9
20260903155504 49 330 0.0 0.0 0.01 0.32 0.27 92 1017.0
20260903155004 49 329 0.0 0.0 0.02 0.33 0.27 92 1017.0
20260903154504 49 329 0.0 0.0 0.02 0.33 0.27 92 1017.0
20260903154004 49 329 0.0 0.0 0.02 0.33 0.27 92 1017.0
20260903153504 49 329 0.0 0.0 0.02 0.33 0.27 92 1017.0
20260903153004 49 329 0.0 0.0 0.02 0.33 0.27 92 1017.0
20260903152504 49 329 0.0 0.0 0.01 0.32 0.26 93 1016.9
20260903152004 49 328 0.0 0.0 0.01 0.33 0.26 93 1016.9
20260903151504 49 328 0.0 0.0 0.01 0.33 0.26 93 1016.9
20260903151004 49 328 0.0 0.0 0.01 0.33 0.26 93 1016.9
20260903150504 49 327 0.0 0.0 0.01 0.33 0.26 93 1016.8
20260903150004 48 327 0.0 0.0 0.01 0.34 0.26 93 1016.8
20260903145505 48 327 0.0 0.0 0.01 0.34 0.26 93 1016.7
20260903144504 48 327 0.0 0.0 0.00 0.33 0.25 93 1016.9
20260903144004 48 327 0.0 0.0 0.00 0.33 0.25 93 1016.7
20260903143504 48 327 0.0 0.0 0.00 0.33 0.25 93 1016.6
20260903143004 48 325 0.0 0.0 0.00 0.33 0.25 93 1016.5
20260903142504 48 324 0.0 1.0 0.00 0.33 0.25 93 1016.5
20260903141503 48 322 0.0 0.0 0.00 0.33 0.25 93 1016.5
20260903141004 48 319 0.0 0.0 0.00 0.33 0.25 93 1016.4
20260903140504 48 316 0.0 0.0 0.00 0.33 0.25 93 1016.5
20260903140005 48 318 0.0 1.0 0.00 0.33 0.25 93 1016.4
20260903135504 48 325 0.0 0.0 0.00 0.33 0.25 93 1016.4
20260903135004 48 322 0.0 0.0 0.01 0.33 0.25 93 1016.4
20260903134504 48 321 0.0 0.0 0.01 0.33 0.25 92 1016.4
20260903134004 48 320 0.0 0.0 0.01 0.33 0.25 92 1016.3
20260903133504 48 319 0.0 0.0 0.01 0.33 0.25 92 1016.2
20260903132504 48 317 0.0 0.0 0.01 0.33 0.25 92 1016.1
20260903132004 48 317 0.0 0.0 0.01 0.33 0.25 92 1016.0
20260903131504 48 317 0.0 0.0 0.01 0.33 0.25 91 1016.0
20260903131005 48 317 0.0 0.0 0.01 0.33 0.25 91 1016.0
20260903130504 48 317 0.0 0.0 0.01 0.33 0.25 91 1016.0
20260903125504 49 316 0.0 0.0 0.01 0.33 0.25 91 1015.8
20260903125004 49 293 0.0 0.0 0.00 0.32 0.24 91 1015.7
20260903124504 49 293 0.0 0.0 0.00 0.32 0.24 91 1015.8
20260903124004 49 293 0.0 0.0 0.00 0.32 0.24 91 1015.8
20260903123504 49 293 0.0 0.0 0.01 0.32 0.24 91 1015.8
20260903122005 49 293 0.0 0.0 0.01 0.32 0.24 91 1015.6
20260903121504 49 293 0.0 0.0 0.01 0.32 0.24 91 1015.6
20260903121004 49 293 0.0 0.0 0.01 0.32 0.24 91 1015.7
20260903120504 49 293 0.0 0.0 0.01 0.32 0.24 90 1015.6
20260903120004 49 293 0.0 0.0 0.01 0.32 0.24 90 1015.6
20260903115504 49 293 0.0 0.0 0.01 0.32 0.24 90 1015.6
20260903114503 49 293 0.0 0.0 0.01 0.32 0.24 90 1015.6
20260903114004 49 293 0.0 0.0 0.01 0.32 0.24 90 1015.7
20260903113004 49 293 0.0 0.0 0.00 0.31 0.23 91 1015.6
20260903112504 49 293 0.0 0.0 0.00 0.31 0.23 90 1015.6
20260903112004 49 293 0.0 0.0 0.00 0.31 0.23 90 1015.5
20260903111504 49 293 0.0 0.0 0.00 0.31 0.23 90 1015.4
20260903111004 49 293 0.0 0.0 0.00 0.31 0.23 90 1015.4
20260903110504 49 293 0.0 0.0 0.00 0.31 0.23 91 1015.3
20260903110003 49 293 0.0 0.0 0.00 0.31 0.23 91 1015.3
20260903105504 49 355 0.0 0.0 0.00 0.31 0.23 92 1015.3
20260903104504 49 355 0.0 0.0 0.00 0.31 0.23 91 1015.3
20260903103504 49 355 0.0 0.0 0.01 0.31 0.23 92 1015.3
20260903103004 49 355 0.0 0.0 0.01 0.31 0.23 92 1015.3
20260903102003 49 355 0.0 0.0 0.02 0.31 0.23 92 1015.3
20260903101504 49 355 0.0 0.0 0.03 0.31 0.23 93 1015.3
20260903101004 49 355 0.0 0.0 0.03 0.31 0.23 93 1015.2
20260903100504 49 5 0.0 0.0 0.03 0.31 0.23 93 1015.2
20260903100004 49 5 0.0 0.0 0.03 0.31 0.23 93 1015.2
20260903095504 49 5 0.0 0.0 0.03 0.31 0.23 93 1015.1
20260903095005 49 5 0.0 0.0 0.04 0.31 0.23 93 1015.1
20260903094504 49 5 0.0 0.0 0.04 0.31 0.23 93 1015.1
20260903094004 49 5 0.0 0.0 0.04 0.30 0.22 93 1015.1
20260903093504 49 5 0.0 0.0 0.04 0.30 0.22 93 1015.1
20260903093004 49 5 0.0 0.0 0.05 0.30 0.22 93 1015.2
20260903092504 50 5 0.0 0.0 0.04 0.29 0.21 93 1015.1
20260903091503 50 5 0.0 0.0 0.06 0.28 0.20 93 1015.2
20260903091004 50 5 0.0 0.0 0.07 0.28 0.20 93 1015.2
20260903090504 50 5 0.0 0.0 0.09 0.28 0.20 93 1015.1
20260903090004 50 5 0.0 0.0 0.10 0.28 0.20 93 1015.2
20260903085504 50 5 0.0 0.0 0.12 0.28 0.20 93 1015.3
20260903085005 50 5 0.0 0.0 0.12 0.27 0.19 93 1015.3
20260903083503 50 5 0.0 0.0 0.15 0.26 0.18 93 1015.3
20260903083004 50 5 0.0 0.0 0.14 0.25 0.17 93 1015.4
20260903082504 50 5 0.0 0.0 0.15 0.25 0.17 93 1015.4
20260903082004 50 5 0.0 0.0 0.14 0.23 0.15 93 1015.5
20260903081503 50 5 0.0 0.0 0.13 0.22 0.14 93 1015.5
20260903081004 50 5 0.0 0.0 0.12 0.21 0.13 93 1015.5
20260903080504 50 5 0.0 0.0 0.11 0.19 0.11 93 1015.4
20260903080004 50 5 0.0 0.0 0.10 0.18 0.10 92 1015.4
20260903075504 50 5 0.0 0.0 0.08 0.16 0.08 92 1015.3
20260903075004 50 5 0.0 0.0 0.07 0.15 0.07 92 1015.3
20260903074004 50 5 0.0 0.0 0.06 0.13 0.05 92 1015.2
20260903073504 50 5 0.0 0.0 0.04 0.11 0.03 92 1015.2
20260903072004 50 5 0.0 0.0 0.02 0.09 0.01 91 1015.1
20260903071503 50 0 0.0 0.0 0.02 0.09 0.01 90 1015.1
20260903071004 51 355 0.0 0.0 0.02 0.09 0.01 90 1015.1
20260903070504 51 355 0.0 0.0 0.01 0.08 0.00 89 1015.0
20260903070004 51 355 0.0 0.0 0.01 0.08 0.00 89 1014.9
20260903064004 52 31 0.0 0.0 0.00 0.07 0.07 86 1014.6
20260903063504 52 355 0.0 0.0 0.00 0.07 0.07 85 1014.7
20260903063004 52 17 0.0 0.0 0.00 0.07 0.07 83 1015.0
20260903062504 52 26 0.0 0.0 0.00 0.07 0.07 82 1014.8
20260903062004 52 32 0.0 0.0 0.00 0.07 0.07 82 1014.6
20260903061504 52 355 0.0 0.0 0.00 0.07 0.07 82 1014.7
20260903060504 52 334 0.0 2.0 0.00 0.07 0.07 81 1014.4
20260903060004 53 339 0.0 0.0 0.00 0.07 0.07 81 1014.5
20260903055505 53 331 0.0 0.0 0.00 0.07 0.07 81 1014.5
20260903055004 53 346 0.0 0.0 0.00 0.07 0.07 81 1014.6
20260903054504 53 338 0.0 0.0 0.00 0.07 0.07 81 1014.6
20260903054004 53 346 0.0 0.0 0.00 0.07 0.07 81 1014.7
20260903053504 53 338 0.0 0.0 0.00 0.07 0.07 81 1014.7
20260903053004 53 329 0.0 0.0 0.00 0.07 0.07 80 1014.8
20260903052504 53 328 0.0 0.0 0.00 0.07 0.07 80 1014.8
20260903052004 53 321 0.0 1.0 0.00 0.07 0.07 80 1014.9
20260903051504 53 324 0.0 0.0 0.00 0.07 0.07 80 1014.9
20260903051004 53 359 0.0 0.0 0.00 0.07 0.07 80 1014.8
20260903050004 54 321 0.0 1.0 0.00 0.07 0.07 79 1014.8
20260903045004 54 318 0.0 3.0 0.00 0.07 0.07 79 1014.7
20260903044504 54 311 1.0 3.0 0.00 0.07 0.07 78 1014.6